SND58 YBUD-YGEL

Flight info

Callsign SND58
Flight time 6h 0m
Altitude 34000
Route RILGO G326 ROM T11 PULOL Q36 ANGAS V656 AYE/N0459F360 Q41 EKUNO DCT 28S120E DCT ELGAT/N0442F370 DCT ELGAT/N0447F360
Aircraft A319/M-SDE3FGHIRWY/LB1

Departure

Time 2026-04-18 04:23
Airport Bundaberg Airport (YBUD)

Arrival

Time 2026-04-18 10:23
Airport Geraldton Airport (YGEL)
Time Latitude Longitude Altitude Speed Heading
2026-04-18 03:59 -24.89834 152.32022 107 ft 0 kts 88°
2026-04-18 04:15 -24.89835 152.31998 107 ft 3 kts 88°
2026-04-18 04:15 -24.89841 152.31972 107 ft 3 kts 49°
2026-04-18 04:15 -24.89864 152.31961 107 ft 3 kts 356°
2026-04-18 04:15 -24.89871 152.31963 107 ft 0 kts 345°
2026-04-18 04:18 -24.89870 152.31963 107 ft 0 kts 345°
2026-04-18 04:18 -24.89860 152.31959 107 ft 3 kts 346°
2026-04-18 04:18 -24.89836 152.31952 107 ft 4 kts 344°
2026-04-18 04:19 -24.89803 152.31937 107 ft 6 kts 328°
2026-04-18 04:19 -24.89764 152.31909 107 ft 7 kts 328°
2026-04-18 04:19 -24.89716 152.31876 107 ft 8 kts 328°
2026-04-18 04:19 -24.89679 152.31842 107 ft 6 kts 290°
2026-04-18 04:20 -24.89684 152.31816 107 ft 0 kts 237°
2026-04-18 04:21 -24.89687 152.31812 107 ft 2 kts 237°
2026-04-18 04:21 -24.89708 152.31776 107 ft 7 kts 238°
2026-04-18 04:21 -24.89730 152.31744 107 ft 2 kts 210°
2026-04-18 04:22 -24.89748 152.31743 107 ft 3 kts 166°
2026-04-18 04:22 -24.89760 152.31749 107 ft 0 kts 150°
2026-04-18 04:22 -24.89852 152.31812 108 ft 48 kts 147°
2026-04-18 04:22 -24.90348 152.32155 108 ft 117 kts 148°
2026-04-18 04:23 -24.91207 152.32753 145 ft 168 kts 146°
2026-04-18 04:23 -24.92189 152.33440 778 ft 166 kts 146°
2026-04-18 04:23 -24.93123 152.34094 1560 ft 159 kts 146°
2026-04-18 04:23 -24.94038 152.34720 2160 ft 158 kts 156°
2026-04-18 04:24 -24.95162 152.34868 2420 ft 175 kts 195°
2026-04-18 04:24 -24.96188 152.34049 2729 ft 196 kts 236°
2026-04-18 04:24 -24.96528 152.32539 3065 ft 215 kts 268°
2026-04-18 04:24 -24.96516 152.30815 3316 ft 240 kts 267°
2026-04-18 04:25 -24.96770 152.28932 3726 ft 256 kts 248°
2026-04-18 04:25 -24.97675 152.27220 4262 ft 266 kts 233°
2026-04-18 04:25 -24.98768 152.25572 5087 ft 268 kts 233°
2026-04-18 04:25 -24.99855 152.23932 5896 ft 269 kts 233°
2026-04-18 04:26 -25.00964 152.22260 6684 ft 271 kts 233°
2026-04-18 04:26 -25.02066 152.20598 7434 ft 274 kts 233°
2026-04-18 04:26 -25.03196 152.18892 8204 ft 276 kts 233°
2026-04-18 04:26 -25.04318 152.17200 8952 ft 277 kts 234°
2026-04-18 04:27 -25.05452 152.15489 9664 ft 279 kts 234°
2026-04-18 04:27 -25.06605 152.13750 10325 ft 282 kts 234°
2026-04-18 04:27 -25.07791 152.11958 10649 ft 297 kts 235°
2026-04-18 04:27 -25.09046 152.10060 10955 ft 313 kts 235°
2026-04-18 04:28 -25.10336 152.08112 11430 ft 322 kts 236°
2026-04-18 04:28 -25.11659 152.06114 12094 ft 322 kts 236°
2026-04-18 04:28 -25.12979 152.04118 12738 ft 324 kts 236°
2026-04-18 04:28 -25.14310 152.02106 13367 ft 326 kts 236°
2026-04-18 04:29 -25.15649 152.00078 14005 ft 327 kts 237°
2026-04-18 04:29 -25.16970 151.98079 14652 ft 328 kts 237°
2026-04-18 04:29 -25.18310 151.96046 15276 ft 329 kts 237°
2026-04-18 04:29 -25.19654 151.94009 15905 ft 329 kts 237°
2026-04-18 04:30 -25.21009 151.91952 16507 ft 331 kts 237°
2026-04-18 04:30 -25.22366 151.89894 17084 ft 332 kts 238°
2026-04-18 04:30 -25.23711 151.87852 17624 ft 334 kts 238°
2026-04-18 04:30 -25.25082 151.85768 18170 ft 336 kts 238°
2026-04-18 04:31 -25.26458 151.83678 18717 ft 337 kts 238°
2026-04-18 04:31 -25.27838 151.81584 19250 ft 338 kts 238°
2026-04-18 04:31 -25.29204 151.79507 19768 ft 339 kts 239°
2026-04-18 04:31 -25.30589 151.77400 20296 ft 339 kts 239°
2026-04-18 04:32 -25.31978 151.75287 20817 ft 340 kts 239°
2026-04-18 04:32 -25.33372 151.73166 21311 ft 340 kts 239°
2026-04-18 04:32 -25.34759 151.71051 21778 ft 341 kts 239°
2026-04-18 04:32 -25.36153 151.68927 22219 ft 343 kts 240°
2026-04-18 04:33 -25.37549 151.66797 22661 ft 344 kts 240°
2026-04-18 04:33 -25.38942 151.64670 23097 ft 344 kts 240°
2026-04-18 04:33 -25.40338 151.62537 23524 ft 345 kts 240°
2026-04-18 04:33 -25.41759 151.60368 23911 ft 346 kts 240°
2026-04-18 04:34 -25.43156 151.58229 24292 ft 347 kts 240°
2026-04-18 04:34 -25.44570 151.56067 24657 ft 348 kts 240°
2026-04-18 04:34 -25.46000 151.53882 25018 ft 350 kts 240°
2026-04-18 04:34 -25.47425 151.51701 25342 ft 351 kts 240°
2026-04-18 04:35 -25.48841 151.49535 25660 ft 352 kts 240°
2026-04-18 04:35 -25.50290 151.47314 26015 ft 353 kts 240°
2026-04-18 04:35 -25.51709 151.45142 26335 ft 354 kts 240°
2026-04-18 04:35 -25.53165 151.42908 26673 ft 354 kts 240°
2026-04-18 04:36 -25.54586 151.40729 27005 ft 354 kts 240°
2026-04-18 04:36 -25.56029 151.38518 27292 ft 355 kts 240°
2026-04-18 04:36 -25.57489 151.36276 27586 ft 356 kts 240°
2026-04-18 04:36 -25.58933 151.34061 27870 ft 357 kts 240°
2026-04-18 04:37 -25.60380 151.31834 28172 ft 358 kts 240°
2026-04-18 04:37 -25.61832 151.29604 28468 ft 359 kts 240°
2026-04-18 04:37 -25.63300 151.27347 28767 ft 360 kts 241°
2026-04-18 04:37 -25.64763 151.25101 29076 ft 361 kts 241°
2026-04-18 04:38 -25.66225 151.22847 29373 ft 361 kts 241°
2026-04-18 04:38 -25.67694 151.20587 29644 ft 363 kts 240°
2026-04-18 04:38 -25.69176 151.18303 29929 ft 364 kts 240°
2026-04-18 04:38 -25.70641 151.16046 30190 ft 366 kts 240°
2026-04-18 04:39 -25.72130 151.13744 30472 ft 367 kts 240°
2026-04-18 04:39 -25.73612 151.11464 30810 ft 366 kts 241°
2026-04-18 04:39 -25.75100 151.09166 31176 ft 364 kts 241°
2026-04-18 04:39 -25.76566 151.06905 31583 ft 362 kts 241°
2026-04-18 04:40 -25.78018 151.04665 31951 ft 360 kts 241°
2026-04-18 04:40 -25.79485 151.02394 32291 ft 359 kts 241°
2026-04-18 04:40 -25.80922 151.00169 32591 ft 358 kts 241°
2026-04-18 04:40 -25.82377 150.97919 32881 ft 358 kts 241°
2026-04-18 04:41 -25.83825 150.95668 33161 ft 358 kts 241°
2026-04-18 04:41 -25.85280 150.93419 33420 ft 359 kts 241°
2026-04-18 04:41 -25.86717 150.91190 33624 ft 360 kts 241°
2026-04-18 04:41 -25.88178 150.88924 33840 ft 361 kts 241°
2026-04-18 04:42 -25.89644 150.86652 34006 ft 362 kts 241°
2026-04-18 04:42 -25.92560 150.82121 34017 ft 361 kts 241°
2026-04-18 04:43 -25.95472 150.77600 34024 ft 361 kts 241°
2026-04-18 04:43 -25.98400 150.73045 34027 ft 361 kts 241°
2026-04-18 04:44 -26.01303 150.68524 34026 ft 361 kts 241°
2026-04-18 04:44 -26.04215 150.63985 34027 ft 360 kts 241°
2026-04-18 04:45 -26.07116 150.59460 34025 ft 360 kts 241°
2026-04-18 04:45 -26.10018 150.54924 34024 ft 360 kts 241°
2026-04-18 04:46 -26.12924 150.50383 34025 ft 359 kts 241°
2026-04-18 04:46 -26.15819 150.45856 34023 ft 360 kts 241°
2026-04-18 04:47 -26.18708 150.41328 34024 ft 359 kts 241°
2026-04-18 04:47 -26.21592 150.36806 34023 ft 359 kts 241°
2026-04-18 04:48 -26.24469 150.32294 34027 ft 360 kts 242°
2026-04-18 04:48 -26.27365 150.27743 34031 ft 359 kts 242°
2026-04-18 04:49 -26.30238 150.23224 34025 ft 358 kts 242°
2026-04-18 04:49 -26.33118 150.18689 34027 ft 359 kts 242°
2026-04-18 04:50 -26.35993 150.14162 34027 ft 358 kts 242°
2026-04-18 04:50 -26.38863 150.09634 34029 ft 358 kts 242°
2026-04-18 04:51 -26.41730 150.05103 34030 ft 358 kts 242°
2026-04-18 04:51 -26.44594 150.00578 34033 ft 357 kts 242°
2026-04-18 04:52 -26.47450 149.96063 34036 ft 358 kts 242°
2026-04-18 04:52 -26.50311 149.91528 34033 ft 358 kts 242°
2026-04-18 04:53 -26.53179 149.86978 34030 ft 358 kts 242°
2026-04-18 04:53 -26.56044 149.82426 34028 ft 358 kts 242°
2026-04-18 04:54 -26.58888 149.77907 34029 ft 358 kts 242°
2026-04-18 04:54 -26.61750 149.73352 34031 ft 357 kts 242°
2026-04-18 04:55 -26.64601 149.68814 34031 ft 357 kts 242°
2026-04-18 04:55 -26.66992 149.64035 34027 ft 351 kts 252°
2026-04-18 04:56 -26.68782 149.56239 34031 ft 346 kts 265°
2026-04-18 04:56 -26.68769 149.50877 34032 ft 347 kts 273°
2026-04-18 04:57 -26.67901 149.45540 34032 ft 350 kts 277°
2026-04-18 04:57 -26.66885 149.40237 34035 ft 350 kts 278°
2026-04-18 04:58 -26.65843 149.34958 34032 ft 349 kts 278°
2026-04-18 04:58 -26.64787 149.29662 34038 ft 350 kts 279°
2026-04-18 04:59 -26.63726 149.24377 34037 ft 350 kts 279°
2026-04-18 04:59 -26.62656 149.19081 34036 ft 350 kts 278°
2026-04-18 05:00 -26.61579 149.13774 34037 ft 351 kts 278°
2026-04-18 05:00 -26.60503 149.08466 34036 ft 350 kts 279°
2026-04-18 05:01 -26.59430 149.03197 34034 ft 350 kts 279°
2026-04-18 05:01 -26.58348 148.97890 34032 ft 350 kts 278°
2026-04-18 05:02 -26.57267 148.92590 34035 ft 351 kts 278°
2026-04-18 05:02 -26.56186 148.87311 34033 ft 351 kts 278°
2026-04-18 05:03 -26.55102 148.82031 34032 ft 350 kts 278°
2026-04-18 05:03 -26.54148 148.76709 34033 ft 349 kts 276°
2026-04-18 05:04 -26.53445 148.71370 34032 ft 349 kts 275°
2026-04-18 05:04 -26.52740 148.66031 34037 ft 350 kts 275°
2026-04-18 05:05 -26.52034 148.60640 34039 ft 350 kts 275°
2026-04-18 05:05 -26.51328 148.55283 34040 ft 350 kts 275°
2026-04-18 05:06 -26.50630 148.49947 34044 ft 349 kts 275°
2026-04-18 05:06 -26.49921 148.44588 34043 ft 350 kts 275°
2026-04-18 05:07 -26.49209 148.39220 34045 ft 350 kts 275°
2026-04-18 05:07 -26.48503 148.33881 34051 ft 350 kts 276°
2026-04-18 05:08 -26.47787 148.28494 34047 ft 351 kts 275°
2026-04-18 05:08 -26.47073 148.23137 34049 ft 351 kts 275°
2026-04-18 05:09 -26.46355 148.17770 34047 ft 351 kts 276°
2026-04-18 05:09 -26.45634 148.12393 34049 ft 351 kts 276°
2026-04-18 05:10 -26.44912 148.07010 34050 ft 351 kts 276°
2026-04-18 05:10 -26.44190 148.01662 34049 ft 351 kts 276°
2026-04-18 05:11 -26.43456 147.96256 34048 ft 352 kts 276°
2026-04-18 05:11 -26.42729 147.90884 34050 ft 352 kts 276°
2026-04-18 05:12 -26.42000 147.85518 34049 ft 351 kts 276°
2026-04-18 05:12 -26.41267 147.80156 34050 ft 351 kts 276°
2026-04-18 05:13 -26.40528 147.74765 34051 ft 352 kts 276°
2026-04-18 05:13 -26.39787 147.69367 34051 ft 352 kts 276°
2026-04-18 05:14 -26.39045 147.63976 34053 ft 352 kts 276°
2026-04-18 05:14 -26.38307 147.58626 34054 ft 352 kts 276°
2026-04-18 05:15 -26.37562 147.53244 34057 ft 353 kts 276°
2026-04-18 05:15 -26.36812 147.47841 34057 ft 353 kts 276°
2026-04-18 05:16 -26.36060 147.42447 34058 ft 353 kts 276°
2026-04-18 05:16 -26.35309 147.37051 34055 ft 353 kts 276°
2026-04-18 05:17 -26.34556 147.31673 34055 ft 353 kts 276°
2026-04-18 05:17 -26.33795 147.26260 34058 ft 353 kts 276°
2026-04-18 05:18 -26.33036 147.20872 34053 ft 354 kts 276°
2026-04-18 05:18 -26.32273 147.15466 34047 ft 354 kts 276°
2026-04-18 05:19 -26.31509 147.10057 34052 ft 353 kts 276°
2026-04-18 05:19 -26.30744 147.04674 34055 ft 354 kts 276°
2026-04-18 05:20 -26.29974 146.99263 34057 ft 354 kts 276°
2026-04-18 05:20 -26.29203 146.93872 34060 ft 354 kts 276°
2026-04-18 05:21 -26.28431 146.88467 34060 ft 354 kts 276°
2026-04-18 05:21 -26.27654 146.83058 34057 ft 354 kts 276°
2026-04-18 05:22 -26.26875 146.77650 34057 ft 355 kts 276°
2026-04-18 05:22 -26.26097 146.72266 34056 ft 355 kts 276°
2026-04-18 05:23 -26.25314 146.66844 34056 ft 355 kts 276°
2026-04-18 05:23 -26.24531 146.61427 34053 ft 355 kts 276°
2026-04-18 05:24 -26.23740 146.56014 34052 ft 355 kts 276°
2026-04-18 05:24 -26.22952 146.50610 34051 ft 355 kts 276°
2026-04-18 05:25 -26.22157 146.45180 34047 ft 356 kts 276°
2026-04-18 05:25 -26.21361 146.39748 34048 ft 356 kts 276°
2026-04-18 05:26 -26.20568 146.34348 34049 ft 356 kts 276°
2026-04-18 05:26 -26.19769 146.28926 34045 ft 356 kts 277°
2026-04-18 05:27 -26.18968 146.23511 34047 ft 356 kts 276°
2026-04-18 05:27 -26.18166 146.18094 34043 ft 356 kts 277°
2026-04-18 05:28 -26.17357 146.12650 34043 ft 356 kts 277°
2026-04-18 05:28 -26.16543 146.07210 34043 ft 357 kts 276°
2026-04-18 05:29 -26.15737 146.01805 34040 ft 356 kts 277°
2026-04-18 05:29 -26.14920 145.96359 34038 ft 357 kts 276°
2026-04-18 05:30 -26.14105 145.90938 34036 ft 357 kts 276°
2026-04-18 05:30 -26.13287 145.85484 34035 ft 357 kts 276°
2026-04-18 05:31 -26.12463 145.80045 34033 ft 358 kts 277°
2026-04-18 05:31 -26.11644 145.74634 34039 ft 358 kts 276°
2026-04-18 05:32 -26.10818 145.69188 34035 ft 357 kts 276°
2026-04-18 05:32 -26.09989 145.63744 34038 ft 357 kts 277°
2026-04-18 05:33 -26.09160 145.58302 34026 ft 358 kts 277°
2026-04-18 05:33 -26.08329 145.52872 34028 ft 358 kts 277°
2026-04-18 05:34 -26.07493 145.47438 34037 ft 359 kts 277°
2026-04-18 05:34 -26.06655 145.41983 34033 ft 358 kts 277°
2026-04-18 05:35 -26.05815 145.36536 34037 ft 359 kts 276°
2026-04-18 05:35 -26.04970 145.31074 34040 ft 359 kts 277°
2026-04-18 05:36 -26.04125 145.25621 34040 ft 358 kts 277°
2026-04-18 05:36 -26.03278 145.20163 34040 ft 359 kts 277°
2026-04-18 05:37 -26.02429 145.14716 34036 ft 359 kts 277°
2026-04-18 05:37 -26.01581 145.09286 34036 ft 359 kts 277°
2026-04-18 05:38 -26.00725 145.03827 34040 ft 359 kts 277°
2026-04-18 05:38 -25.99864 144.98347 34037 ft 360 kts 277°
2026-04-18 05:39 -25.99009 144.92920 34034 ft 360 kts 277°
2026-04-18 05:39 -25.98149 144.87448 34023 ft 360 kts 277°
2026-04-18 05:40 -25.97278 144.81955 34016 ft 361 kts 277°
2026-04-18 05:40 -25.96414 144.76495 34017 ft 361 kts 277°
2026-04-18 05:41 -25.95540 144.71010 34018 ft 361 kts 277°
2026-04-18 05:41 -25.94666 144.65526 34017 ft 362 kts 277°
2026-04-18 05:42 -25.93787 144.60030 34018 ft 362 kts 277°
2026-04-18 05:42 -25.92913 144.54561 34013 ft 362 kts 277°
2026-04-18 05:43 -25.92033 144.49080 34008 ft 362 kts 277°
2026-04-18 05:43 -25.91149 144.43582 34007 ft 362 kts 277°
2026-04-18 05:44 -25.90263 144.38089 34011 ft 362 kts 277°
2026-04-18 05:44 -25.89373 144.32617 34010 ft 363 kts 278°
2026-04-18 05:45 -25.88476 144.27094 34010 ft 362 kts 277°
2026-04-18 05:45 -25.87581 144.21609 34009 ft 362 kts 278°
2026-04-18 05:46 -25.86686 144.16133 34015 ft 362 kts 278°
2026-04-18 05:46 -25.85781 144.10629 34012 ft 363 kts 277°
2026-04-18 05:47 -25.84882 144.05160 34007 ft 363 kts 278°
2026-04-18 05:47 -25.83975 143.99649 34014 ft 364 kts 277°
2026-04-18 05:48 -25.83066 143.94142 34007 ft 363 kts 278°
2026-04-18 05:48 -25.82158 143.88666 34007 ft 364 kts 277°
2026-04-18 05:49 -25.81244 143.83145 34008 ft 364 kts 277°
2026-04-18 05:49 -25.80332 143.77660 34004 ft 363 kts 277°
2026-04-18 05:50 -25.79413 143.72156 34002 ft 364 kts 278°
2026-04-18 05:50 -25.78491 143.66641 34002 ft 363 kts 277°
2026-04-18 05:51 -25.77576 143.61173 34002 ft 363 kts 277°
2026-04-18 05:51 -25.76652 143.55672 34001 ft 363 kts 277°
2026-04-18 05:52 -25.75725 143.50163 34000 ft 363 kts 277°
2026-04-18 05:52 -25.74801 143.44699 34000 ft 363 kts 277°
2026-04-18 05:53 -25.73871 143.39194 33995 ft 364 kts 278°
2026-04-18 05:53 -25.72940 143.33691 34001 ft 364 kts 278°
2026-04-18 05:54 -25.72007 143.28206 34002 ft 363 kts 278°
2026-04-18 05:54 -25.71066 143.22684 33999 ft 363 kts 278°
2026-04-18 05:55 -25.70129 143.17195 33992 ft 364 kts 278°
2026-04-18 05:55 -25.69185 143.11691 33992 ft 364 kts 277°
2026-04-18 05:56 -25.68245 143.06198 33990 ft 365 kts 277°
2026-04-18 05:56 -25.67296 143.00679 33986 ft 364 kts 278°
2026-04-18 05:57 -25.65872 142.92424 33985 ft 365 kts 278°
2026-04-18 05:58 -25.64921 142.86934 33988 ft 365 kts 278°
2026-04-18 05:58 -25.63960 142.81396 33982 ft 366 kts 278°
2026-04-18 05:59 -25.63006 142.75886 33980 ft 366 kts 278°
2026-04-18 05:59 -25.62046 142.70371 33981 ft 367 kts 278°
2026-04-18 06:00 -25.61075 142.64818 33979 ft 367 kts 278°
2026-04-18 06:00 -25.60109 142.59306 33984 ft 367 kts 278°
2026-04-18 06:01 -25.59138 142.53758 33989 ft 366 kts 278°
2026-04-18 06:01 -25.58165 142.48239 33994 ft 367 kts 278°
2026-04-18 06:02 -25.57196 142.42726 33998 ft 366 kts 278°
2026-04-18 06:02 -25.56216 142.37195 34001 ft 366 kts 278°
2026-04-18 06:03 -25.55241 142.31676 34001 ft 366 kts 278°
2026-04-18 06:03 -25.54261 142.26163 33999 ft 366 kts 278°
2026-04-18 06:04 -25.53283 142.20657 34005 ft 366 kts 278°
2026-04-18 06:04 -25.52303 142.15166 34001 ft 366 kts 278°
2026-04-18 06:05 -25.51316 142.09631 34003 ft 366 kts 278°
2026-04-18 06:05 -25.50331 142.04111 34004 ft 366 kts 278°
2026-04-18 06:06 -25.49344 141.98634 34005 ft 366 kts 278°
2026-04-18 06:06 -25.48350 141.93091 33995 ft 367 kts 278°
2026-04-18 06:07 -25.47356 141.87572 33987 ft 368 kts 278°
2026-04-18 06:07 -25.46351 141.82024 33983 ft 368 kts 278°
2026-04-18 06:08 -25.45352 141.76509 33982 ft 368 kts 279°
2026-04-18 06:08 -25.44345 141.70960 33985 ft 368 kts 278°
2026-04-18 06:09 -25.43344 141.65445 33982 ft 368 kts 278°
2026-04-18 06:09 -25.42332 141.59894 33984 ft 369 kts 278°
2026-04-18 06:10 -25.41318 141.54347 33983 ft 369 kts 278°
2026-04-18 06:10 -25.40301 141.48796 33982 ft 369 kts 278°
2026-04-18 06:11 -25.39283 141.43227 33980 ft 369 kts 278°
2026-04-18 06:11 -25.38263 141.37694 33981 ft 369 kts 278°
2026-04-18 06:12 -25.37244 141.32161 33978 ft 370 kts 278°
2026-04-18 06:12 -25.36218 141.26592 33978 ft 369 kts 279°
2026-04-18 06:13 -25.35196 141.21066 33977 ft 369 kts 278°
2026-04-18 06:13 -25.34166 141.15533 33975 ft 370 kts 278°
2026-04-18 06:14 -25.33136 141.09994 33976 ft 369 kts 279°
2026-04-18 06:14 -25.32094 141.04410 33978 ft 369 kts 279°
2026-04-18 06:15 -25.31060 140.98879 33979 ft 370 kts 278°
2026-04-18 06:15 -25.30018 140.93326 33975 ft 370 kts 278°
2026-04-18 06:16 -25.28984 140.87796 33978 ft 369 kts 279°
2026-04-18 06:16 -25.27941 140.82256 33974 ft 369 kts 278°
2026-04-18 06:17 -25.26897 140.76726 33974 ft 371 kts 278°
2026-04-18 06:17 -25.25850 140.71172 33976 ft 370 kts 278°
2026-04-18 06:18 -25.24801 140.65620 33975 ft 370 kts 278°
2026-04-18 06:18 -25.23742 140.60062 33976 ft 371 kts 278°
2026-04-18 06:19 -25.22688 140.54500 33975 ft 370 kts 278°
2026-04-18 06:19 -25.21631 140.48956 33974 ft 370 kts 278°
2026-04-18 06:20 -25.20574 140.43428 33972 ft 371 kts 278°
2026-04-18 06:20 -25.19513 140.37872 33979 ft 370 kts 278°
2026-04-18 06:21 -25.18445 140.32317 33984 ft 370 kts 279°
2026-04-18 06:21 -25.17385 140.26796 33985 ft 370 kts 278°
2026-04-18 06:22 -25.16316 140.21227 33982 ft 370 kts 279°
2026-04-18 06:22 -25.15249 140.15704 33983 ft 371 kts 278°
2026-04-18 06:23 -25.14176 140.10133 33983 ft 369 kts 278°
2026-04-18 06:23 -25.13104 140.04607 33981 ft 371 kts 279°
2026-04-18 06:24 -25.12028 139.99049 33983 ft 370 kts 279°
2026-04-18 06:24 -25.10952 139.93543 33982 ft 369 kts 279°
2026-04-18 06:25 -25.09878 139.88022 33984 ft 370 kts 279°
2026-04-18 06:25 -25.08790 139.82466 33980 ft 370 kts 278°
2026-04-18 06:26 -25.07708 139.76944 33989 ft 371 kts 278°
2026-04-18 06:26 -25.06620 139.71394 33986 ft 369 kts 278°
2026-04-18 06:27 -25.05536 139.65874 33988 ft 370 kts 279°
2026-04-18 06:27 -25.04448 139.60367 33986 ft 370 kts 278°
2026-04-18 06:28 -25.03355 139.54814 33987 ft 370 kts 278°
2026-04-18 06:28 -25.02264 139.49291 33986 ft 369 kts 279°
2026-04-18 06:29 -25.01173 139.43799 33987 ft 369 kts 278°
2026-04-18 06:29 -25.00074 139.38263 33990 ft 369 kts 278°
2026-04-18 06:30 -24.98973 139.32733 33992 ft 370 kts 279°
2026-04-18 06:30 -24.97871 139.27217 33989 ft 369 kts 279°
2026-04-18 06:31 -24.96766 139.21684 33987 ft 371 kts 279°
2026-04-18 06:31 -24.95663 139.16180 33991 ft 369 kts 279°
2026-04-18 06:32 -24.94556 139.10660 33992 ft 370 kts 279°
2026-04-18 06:32 -24.93446 139.05145 33992 ft 369 kts 279°
2026-04-18 06:33 -24.92340 138.99646 33998 ft 369 kts 279°
2026-04-18 06:33 -24.91232 138.94154 33998 ft 369 kts 279°
2026-04-18 06:34 -24.90118 138.88641 33998 ft 369 kts 279°
2026-04-18 06:34 -24.89005 138.83151 33998 ft 369 kts 279°
2026-04-18 06:35 -24.87889 138.77657 33994 ft 369 kts 279°
2026-04-18 06:35 -24.86763 138.72137 33997 ft 369 kts 279°
2026-04-18 06:36 -24.85647 138.66656 33995 ft 370 kts 279°
2026-04-18 06:36 -24.84526 138.61157 33999 ft 369 kts 279°
2026-04-18 06:37 -24.83397 138.55658 33996 ft 369 kts 279°
2026-04-18 06:37 -24.82272 138.50156 33995 ft 370 kts 279°
2026-04-18 06:38 -24.81140 138.44647 33994 ft 369 kts 279°
2026-04-18 06:38 -24.80009 138.39162 33997 ft 370 kts 279°
2026-04-18 06:39 -24.78869 138.33641 33996 ft 371 kts 279°
2026-04-18 06:39 -24.77731 138.28140 33997 ft 371 kts 279°
2026-04-18 06:40 -24.76587 138.22615 33996 ft 372 kts 279°
2026-04-18 06:40 -24.75440 138.17088 34002 ft 371 kts 279°
2026-04-18 06:41 -24.74299 138.11580 34005 ft 371 kts 279°
2026-04-18 06:41 -24.73144 138.06038 34012 ft 371 kts 280°
2026-04-18 06:42 -24.71989 138.00510 34013 ft 371 kts 279°
2026-04-18 06:42 -24.70842 137.95012 34012 ft 370 kts 280°
2026-04-18 06:43 -24.69689 137.89513 34018 ft 370 kts 280°
2026-04-18 06:43 -24.68535 137.84015 34013 ft 371 kts 279°
2026-04-18 06:44 -24.67369 137.78474 34014 ft 372 kts 279°
2026-04-18 06:44 -24.66206 137.72940 34013 ft 372 kts 280°
2026-04-18 06:45 -24.65039 137.67424 34012 ft 373 kts 279°
2026-04-18 06:45 -24.63871 137.61903 34014 ft 373 kts 279°
2026-04-18 06:46 -24.62697 137.56383 34015 ft 372 kts 280°
2026-04-18 06:46 -24.61521 137.50838 34012 ft 373 kts 280°
2026-04-18 06:47 -24.60343 137.45316 34014 ft 373 kts 280°
2026-04-18 06:47 -24.59158 137.39754 34015 ft 374 kts 280°
2026-04-18 06:48 -24.57978 137.34219 34016 ft 374 kts 280°
2026-04-18 06:48 -24.56791 137.28685 34018 ft 374 kts 280°
2026-04-18 06:49 -24.55602 137.23143 34021 ft 375 kts 281°
2026-04-18 06:49 -24.54406 137.17572 34022 ft 374 kts 280°
2026-04-18 06:50 -24.53209 137.12013 34021 ft 375 kts 280°
2026-04-18 06:50 -24.52004 137.06427 34024 ft 376 kts 281°
2026-04-18 06:51 -24.50801 137.00867 34026 ft 376 kts 281°
2026-04-18 06:51 -24.49599 136.95297 34028 ft 377 kts 281°
2026-04-18 06:52 -24.48382 136.89696 34029 ft 377 kts 281°
2026-04-18 06:52 -24.47247 136.84093 34032 ft 376 kts 278°
2026-04-18 06:53 -24.46625 136.78427 34032 ft 375 kts 272°
2026-04-18 06:53 -24.46568 136.72728 34033 ft 374 kts 267°
2026-04-18 06:54 -24.47084 136.67093 34035 ft 374 kts 262°
2026-04-18 06:54 -24.48008 136.61465 34035 ft 375 kts 260°
2026-04-18 06:55 -24.48959 136.55835 34037 ft 375 kts 260°
2026-04-18 06:55 -24.49909 136.50235 34039 ft 375 kts 261°
2026-04-18 06:56 -24.50862 136.44608 34038 ft 375 kts 261°
2026-04-18 06:56 -24.51815 136.38997 34042 ft 375 kts 261°
2026-04-18 06:57 -24.52760 136.33391 34047 ft 374 kts 261°
2026-04-18 06:57 -24.54179 136.25000 34044 ft 375 kts 261°
2026-04-18 06:58 -24.55125 136.19376 34045 ft 375 kts 261°
2026-04-18 06:58 -24.56072 136.13739 34047 ft 375 kts 261°
2026-04-18 06:59 -24.57010 136.08153 34048 ft 375 kts 261°
2026-04-18 06:59 -24.57950 136.02530 34051 ft 375 kts 261°
2026-04-18 07:00 -24.58891 135.96892 34054 ft 375 kts 261°
2026-04-18 07:00 -24.59822 135.91284 34054 ft 374 kts 261°
2026-04-18 07:01 -24.60753 135.85677 34088 ft 378 kts 261°
2026-04-18 07:01 -24.61199 135.82996 34328 ft 380 kts 261°
2026-04-18 07:01 -24.61670 135.80142 34723 ft 378 kts 261°
2026-04-18 07:02 -24.62140 135.77307 35114 ft 376 kts 261°
2026-04-18 07:02 -24.62600 135.74516 35474 ft 375 kts 262°
2026-04-18 07:02 -24.63062 135.71715 35783 ft 374 kts 262°
2026-04-18 07:02 -24.63527 135.68892 36026 ft 374 kts 262°
2026-04-18 07:03 -24.64450 135.63269 36055 ft 374 kts 262°
2026-04-18 07:03 -24.65371 135.57666 36060 ft 374 kts 262°
2026-04-18 07:04 -24.66282 135.52092 36061 ft 373 kts 261°
2026-04-18 07:04 -24.67202 135.46458 36063 ft 374 kts 262°
2026-04-18 07:05 -24.68111 135.40875 36064 ft 374 kts 261°
2026-04-18 07:05 -24.69022 135.35257 36066 ft 374 kts 262°
2026-04-18 07:06 -24.69937 135.29620 36068 ft 373 kts 262°
2026-04-18 07:06 -24.70839 135.24040 36067 ft 374 kts 262°
2026-04-18 07:07 -24.71743 135.18422 36069 ft 373 kts 262°
2026-04-18 07:07 -24.72644 135.12836 36070 ft 373 kts 262°
2026-04-18 07:08 -24.73543 135.07230 36070 ft 373 kts 262°
2026-04-18 07:08 -24.74444 135.01611 36071 ft 373 kts 262°
2026-04-18 07:09 -24.75335 134.96019 36072 ft 372 kts 262°
2026-04-18 07:09 -24.76228 134.90422 36072 ft 372 kts 262°
2026-04-18 07:10 -24.77116 134.84822 36073 ft 372 kts 262°
2026-04-18 07:10 -24.78002 134.79250 36074 ft 372 kts 262°
2026-04-18 07:11 -24.78884 134.73660 36075 ft 372 kts 262°
2026-04-18 07:11 -24.79765 134.68072 36076 ft 372 kts 262°
2026-04-18 07:12 -24.80646 134.62485 36077 ft 371 kts 262°
2026-04-18 07:12 -24.81520 134.56903 36078 ft 371 kts 262°
2026-04-18 07:13 -24.82394 134.51315 36080 ft 371 kts 262°
2026-04-18 07:13 -24.83265 134.45744 36081 ft 371 kts 262°
2026-04-18 07:14 -24.84135 134.40158 36083 ft 370 kts 262°
2026-04-18 07:14 -24.84997 134.34618 36088 ft 371 kts 263°
2026-04-18 07:15 -24.85864 134.29025 36091 ft 370 kts 262°
2026-04-18 07:15 -24.86725 134.23460 36092 ft 370 kts 263°
2026-04-18 07:16 -24.87584 134.17874 36093 ft 370 kts 262°
2026-04-18 07:16 -24.88437 134.12332 36093 ft 369 kts 263°
2026-04-18 07:17 -24.89296 134.06746 36092 ft 369 kts 263°
2026-04-18 07:17 -24.90144 134.01204 36093 ft 370 kts 263°
2026-04-18 07:18 -24.90992 133.95622 36092 ft 370 kts 263°
2026-04-18 07:18 -24.91843 133.90044 36092 ft 370 kts 263°
2026-04-18 07:19 -24.92685 133.84506 36089 ft 368 kts 263°
2026-04-18 07:19 -24.93528 133.78938 36083 ft 369 kts 263°
2026-04-18 07:20 -24.94365 133.73387 36075 ft 369 kts 263°
2026-04-18 07:20 -24.95199 133.67871 36077 ft 368 kts 263°
2026-04-18 07:21 -24.96036 133.62289 36078 ft 368 kts 263°
2026-04-18 07:21 -24.96864 133.56755 36076 ft 368 kts 263°
2026-04-18 07:22 -24.97692 133.51219 36075 ft 367 kts 263°
2026-04-18 07:22 -24.98521 133.45670 36077 ft 368 kts 263°
2026-04-18 07:23 -24.99344 133.40132 36081 ft 367 kts 263°
2026-04-18 07:23 -25.00164 133.34605 36088 ft 367 kts 263°
2026-04-18 07:24 -25.00982 133.29060 36093 ft 366 kts 263°
2026-04-18 07:24 -25.01797 133.23537 36099 ft 366 kts 263°
2026-04-18 07:25 -25.02615 133.17981 36101 ft 366 kts 263°
2026-04-18 07:25 -25.03425 133.12470 36104 ft 365 kts 263°
2026-04-18 07:26 -25.04231 133.06952 36104 ft 366 kts 263°
2026-04-18 07:26 -25.05038 133.01439 36105 ft 366 kts 263°
2026-04-18 07:27 -25.05839 132.95929 36107 ft 365 kts 263°
2026-04-18 07:27 -25.06642 132.90410 36101 ft 365 kts 263°
2026-04-18 07:28 -25.07440 132.84901 36099 ft 364 kts 263°
2026-04-18 07:28 -25.08234 132.79395 36097 ft 365 kts 263°
2026-04-18 07:29 -25.09029 132.73886 36096 ft 364 kts 263°
2026-04-18 07:29 -25.09820 132.68382 36094 ft 364 kts 263°
2026-04-18 07:30 -25.10609 132.62868 36099 ft 364 kts 263°
2026-04-18 07:30 -25.11395 132.57355 36106 ft 365 kts 263°
2026-04-18 07:31 -25.12179 132.51860 36113 ft 364 kts 263°
2026-04-18 07:31 -25.12946 132.46339 36113 ft 364 kts 264°
2026-04-18 07:32 -25.13369 132.40808 36115 ft 362 kts 269°
2026-04-18 07:32 -25.13555 132.35265 36113 ft 363 kts 268°
2026-04-18 07:33 -25.13738 132.29719 36115 ft 363 kts 269°
2026-04-18 07:33 -25.13913 132.24167 36115 ft 363 kts 269°
2026-04-18 07:34 -25.14086 132.18619 36115 ft 362 kts 269°
2026-04-18 07:34 -25.14253 132.13055 36115 ft 363 kts 269°
2026-04-18 07:35 -25.14422 132.07527 36122 ft 363 kts 269°
2026-04-18 07:35 -25.14583 132.01973 36125 ft 363 kts 269°
2026-04-18 07:36 -25.14746 131.96410 36118 ft 363 kts 269°
2026-04-18 07:36 -25.14904 131.90880 36111 ft 363 kts 269°
2026-04-18 07:37 -25.15061 131.85298 36107 ft 364 kts 269°
2026-04-18 07:37 -25.15218 131.79748 36103 ft 364 kts 269°
2026-04-18 07:38 -25.15370 131.74187 36102 ft 364 kts 269°
2026-04-18 07:38 -25.15522 131.68628 36096 ft 363 kts 269°
2026-04-18 07:39 -25.15670 131.63049 36096 ft 363 kts 269°
2026-04-18 07:39 -25.15820 131.57503 36091 ft 363 kts 269°
2026-04-18 07:40 -25.15960 131.51949 36093 ft 362 kts 269°
2026-04-18 07:40 -25.16105 131.46393 36088 ft 363 kts 269°
2026-04-18 07:41 -25.16248 131.40828 36089 ft 364 kts 269°
2026-04-18 07:41 -25.16386 131.35292 36089 ft 363 kts 269°
2026-04-18 07:42 -25.16523 131.29726 36091 ft 363 kts 270°
2026-04-18 07:42 -25.16658 131.24152 36092 ft 363 kts 270°
2026-04-18 07:43 -25.16789 131.18625 36094 ft 363 kts 269°
2026-04-18 07:43 -25.16920 131.13072 36099 ft 363 kts 270°
2026-04-18 07:44 -25.17067 131.07538 36105 ft 363 kts 268°
2026-04-18 07:44 -25.17777 131.02004 36114 ft 365 kts 261°
2026-04-18 07:45 -25.19240 130.96663 36115 ft 367 kts 253°
2026-04-18 07:45 -25.21452 130.91560 36116 ft 373 kts 246°
2026-04-18 07:46 -25.24360 130.86763 36120 ft 377 kts 242°
2026-04-18 07:46 -25.27412 130.82044 36119 ft 376 kts 242°
2026-04-18 07:47 -25.30448 130.77377 36120 ft 375 kts 242°
2026-04-18 07:47 -25.33504 130.72684 36119 ft 375 kts 241°
2026-04-18 07:48 -25.36526 130.68047 36116 ft 375 kts 242°
2026-04-18 07:48 -25.39588 130.63341 36120 ft 375 kts 242°
2026-04-18 07:49 -25.42609 130.58697 36126 ft 375 kts 242°
2026-04-18 07:49 -25.45646 130.54027 36128 ft 374 kts 242°
2026-04-18 07:50 -25.48666 130.49374 36125 ft 373 kts 242°
2026-04-18 07:50 -25.51705 130.44694 36130 ft 373 kts 242°
2026-04-18 07:51 -25.54729 130.40027 36135 ft 374 kts 242°
2026-04-18 07:51 -25.57730 130.35387 36138 ft 373 kts 242°
2026-04-18 07:52 -25.60748 130.30724 36155 ft 372 kts 242°
2026-04-18 07:52 -25.63759 130.26062 36159 ft 372 kts 242°
2026-04-18 07:53 -25.66752 130.21426 36166 ft 372 kts 243°
2026-04-18 07:53 -25.69753 130.16771 36175 ft 371 kts 242°
2026-04-18 07:54 -25.72763 130.12100 36180 ft 371 kts 243°
2026-04-18 07:54 -25.75747 130.07463 36180 ft 370 kts 242°
2026-04-18 07:55 -25.78727 130.02829 36186 ft 371 kts 242°
2026-04-18 07:55 -25.81707 129.98186 36185 ft 369 kts 242°
2026-04-18 07:56 -25.84676 129.93558 36184 ft 370 kts 243°
2026-04-18 07:56 -25.87659 129.88913 36189 ft 370 kts 243°
2026-04-18 07:57 -25.90649 129.84245 36187 ft 370 kts 243°
2026-04-18 07:57 -25.93613 129.79611 36188 ft 370 kts 243°
2026-04-18 07:58 -25.98055 129.72655 36186 ft 368 kts 243°
2026-04-18 07:59 -26.01028 129.67996 36188 ft 369 kts 243°
2026-04-18 07:59 -26.03977 129.63377 36179 ft 368 kts 243°
2026-04-18 08:00 -26.06932 129.58731 36176 ft 368 kts 243°
2026-04-18 08:00 -26.09887 129.54091 36171 ft 369 kts 243°
2026-04-18 08:01 -26.12837 129.49448 36161 ft 369 kts 243°
2026-04-18 08:01 -26.15796 129.44786 36154 ft 368 kts 244°
2026-04-18 08:02 -26.18743 129.40137 36152 ft 369 kts 244°
2026-04-18 08:02 -26.21688 129.35492 36144 ft 369 kts 244°
2026-04-18 08:03 -26.24641 129.30823 36138 ft 369 kts 244°
2026-04-18 08:03 -26.27595 129.26149 36132 ft 367 kts 244°
2026-04-18 08:04 -26.30517 129.21526 36112 ft 367 kts 244°
2026-04-18 08:04 -26.33460 129.16859 36114 ft 368 kts 244°
2026-04-18 08:05 -26.36386 129.12216 36104 ft 368 kts 244°
2026-04-18 08:05 -26.39325 129.07544 36105 ft 366 kts 244°
2026-04-18 08:06 -26.42242 129.02919 36098 ft 366 kts 245°
2026-04-18 08:06 -26.45156 128.98283 36095 ft 367 kts 244°
2026-04-18 08:07 -26.48073 128.93639 36095 ft 367 kts 244°
2026-04-18 08:07 -26.50997 128.88974 36097 ft 367 kts 245°
2026-04-18 08:08 -26.53919 128.84312 36096 ft 367 kts 245°
2026-04-18 08:08 -26.56825 128.79665 36097 ft 366 kts 244°
2026-04-18 08:09 -26.59743 128.74994 36090 ft 366 kts 244°
2026-04-18 08:09 -26.62647 128.70346 36085 ft 366 kts 245°
2026-04-18 08:10 -26.65550 128.65692 36087 ft 366 kts 245°
2026-04-18 08:10 -26.68450 128.61040 36082 ft 365 kts 245°
2026-04-18 08:11 -26.71346 128.56384 36075 ft 365 kts 245°
2026-04-18 08:11 -26.74238 128.51733 36075 ft 366 kts 244°
2026-04-18 08:12 -26.77135 128.47072 36073 ft 366 kts 245°
2026-04-18 08:12 -26.80036 128.42394 36071 ft 364 kts 245°
2026-04-18 08:13 -26.82905 128.37767 36069 ft 363 kts 245°
2026-04-18 08:13 -26.85794 128.33102 36075 ft 365 kts 245°
2026-04-18 08:14 -26.88678 128.28441 36068 ft 365 kts 245°
2026-04-18 08:14 -26.91551 128.23793 36067 ft 364 kts 245°
2026-04-18 08:15 -26.94423 128.19139 36065 ft 363 kts 245°
2026-04-18 08:15 -26.97292 128.14487 36066 ft 362 kts 245°
2026-04-18 08:16 -27.00141 128.09865 36067 ft 362 kts 246°
2026-04-18 08:16 -27.03014 128.05197 36065 ft 363 kts 246°
2026-04-18 08:17 -27.05859 128.00565 36064 ft 363 kts 245°
2026-04-18 08:17 -27.08719 127.95911 36064 ft 364 kts 245°
2026-04-18 08:18 -27.11589 127.91232 36063 ft 363 kts 245°
2026-04-18 08:18 -27.14439 127.86581 36066 ft 363 kts 245°
2026-04-18 08:19 -27.17309 127.81895 36062 ft 365 kts 246°
2026-04-18 08:19 -27.20178 127.77202 36061 ft 365 kts 246°
2026-04-18 08:20 -27.23036 127.72523 36064 ft 365 kts 245°
2026-04-18 08:20 -27.25892 127.67844 36060 ft 364 kts 245°
2026-04-18 08:21 -27.28763 127.63136 36060 ft 366 kts 245°
2026-04-18 08:21 -27.31621 127.58443 36059 ft 366 kts 245°
2026-04-18 08:22 -27.34498 127.53713 36060 ft 366 kts 245°
2026-04-18 08:22 -27.37363 127.48996 36058 ft 365 kts 245°
2026-04-18 08:23 -27.40230 127.44274 36058 ft 366 kts 245°
2026-04-18 08:23 -27.43091 127.39553 36056 ft 366 kts 245°
2026-04-18 08:24 -27.45942 127.34846 36056 ft 365 kts 245°
2026-04-18 08:24 -27.48800 127.30123 36054 ft 366 kts 245°
2026-04-18 08:25 -27.51669 127.25372 36050 ft 366 kts 246°
2026-04-18 08:25 -27.54524 127.20644 36053 ft 367 kts 245°
2026-04-18 08:26 -27.57383 127.15906 36049 ft 366 kts 246°
2026-04-18 08:26 -27.60240 127.11167 36051 ft 367 kts 245°
2026-04-18 08:27 -27.63105 127.06408 36050 ft 367 kts 246°
2026-04-18 08:27 -27.65965 127.01652 36049 ft 367 kts 246°
2026-04-18 08:28 -27.68825 126.96886 36049 ft 367 kts 246°
2026-04-18 08:28 -27.71677 126.92131 36050 ft 368 kts 245°
2026-04-18 08:29 -27.74555 126.87330 36050 ft 368 kts 246°
2026-04-18 08:29 -27.77404 126.82571 36050 ft 368 kts 246°
2026-04-18 08:30 -27.80257 126.77794 36054 ft 369 kts 245°
2026-04-18 08:30 -27.83112 126.73012 36055 ft 367 kts 245°
2026-04-18 08:31 -27.85983 126.68199 36054 ft 368 kts 245°
2026-04-18 08:31 -27.88842 126.63403 36047 ft 368 kts 246°
2026-04-18 08:32 -27.91685 126.58621 36047 ft 368 kts 245°
2026-04-18 08:32 -27.94541 126.53820 36048 ft 370 kts 245°
2026-04-18 08:33 -27.97397 126.49010 36044 ft 370 kts 245°
2026-04-18 08:33 -28.00252 126.44196 36048 ft 368 kts 245°
2026-04-18 08:34 -28.03115 126.39366 36052 ft 370 kts 245°
2026-04-18 08:34 -28.05971 126.34537 36057 ft 369 kts 246°
2026-04-18 08:35 -28.08815 126.29725 36058 ft 370 kts 246°
2026-04-18 08:35 -28.11662 126.24905 36056 ft 369 kts 246°
2026-04-18 08:36 -28.14514 126.20068 36058 ft 369 kts 245°
2026-04-18 08:36 -28.17359 126.15237 36062 ft 369 kts 245°
2026-04-18 08:37 -28.20205 126.10405 36064 ft 370 kts 245°
2026-04-18 08:37 -28.23061 126.05547 36066 ft 370 kts 245°
2026-04-18 08:38 -28.25900 126.00711 36065 ft 370 kts 245°
2026-04-18 08:38 -28.28758 125.95837 36066 ft 371 kts 245°
2026-04-18 08:39 -28.31602 125.90983 36064 ft 372 kts 245°
2026-04-18 08:39 -28.34465 125.86090 36064 ft 372 kts 245°
2026-04-18 08:40 -28.37331 125.81187 36063 ft 373 kts 245°
2026-04-18 08:40 -28.40176 125.76311 36059 ft 374 kts 245°
2026-04-18 08:41 -28.43056 125.71376 36058 ft 375 kts 245°
2026-04-18 08:41 -28.45919 125.66458 36059 ft 375 kts 245°
2026-04-18 08:42 -28.48803 125.61500 36060 ft 375 kts 245°
2026-04-18 08:42 -28.51671 125.56563 36058 ft 376 kts 245°
2026-04-18 08:43 -28.54544 125.51614 36058 ft 376 kts 245°
2026-04-18 08:43 -28.57425 125.46648 36056 ft 377 kts 245°
2026-04-18 08:44 -28.60295 125.41690 36058 ft 377 kts 245°
2026-04-18 08:44 -28.63170 125.36720 36060 ft 377 kts 244°
2026-04-18 08:45 -28.66053 125.31724 36055 ft 378 kts 245°
2026-04-18 08:45 -28.68932 125.26738 36058 ft 378 kts 245°
2026-04-18 08:46 -28.71808 125.21744 36058 ft 379 kts 245°
2026-04-18 08:46 -28.74691 125.16737 36050 ft 379 kts 244°
2026-04-18 08:47 -28.77578 125.11718 36049 ft 380 kts 245°
2026-04-18 08:47 -28.80475 125.06674 36048 ft 379 kts 245°
2026-04-18 08:48 -28.83354 125.01653 36050 ft 380 kts 244°
2026-04-18 08:48 -28.86240 124.96613 36054 ft 381 kts 244°
2026-04-18 08:49 -28.89139 124.91544 36053 ft 381 kts 244°
2026-04-18 08:49 -28.92009 124.86524 36053 ft 381 kts 244°
2026-04-18 08:50 -28.94899 124.81461 36052 ft 382 kts 244°
2026-04-18 08:50 -28.97536 124.76236 36056 ft 375 kts 252°
2026-04-18 08:51 -28.99099 124.70634 36051 ft 369 kts 262°
2026-04-18 08:51 -28.99575 124.64896 36053 ft 366 kts 272°
2026-04-18 08:52 -28.98980 124.59140 36051 ft 365 kts 282°
2026-04-18 08:52 -28.97912 124.53501 36054 ft 365 kts 282°
2026-04-18 08:53 -28.96811 124.47849 36055 ft 365 kts 282°
2026-04-18 08:53 -28.95697 124.42179 36055 ft 366 kts 282°
2026-04-18 08:54 -28.94584 124.36556 36055 ft 365 kts 282°
2026-04-18 08:54 -28.93459 124.30896 36058 ft 366 kts 282°
2026-04-18 08:55 -28.92334 124.25259 36056 ft 367 kts 282°
2026-04-18 08:55 -28.91203 124.19587 36056 ft 366 kts 282°
2026-04-18 08:56 -28.90065 124.13920 36052 ft 366 kts 282°
2026-04-18 08:56 -28.88935 124.08297 36054 ft 366 kts 282°
2026-04-18 08:57 -28.87226 123.99815 36051 ft 366 kts 282°
2026-04-18 08:57 -28.86091 123.94197 36053 ft 367 kts 282°
2026-04-18 08:58 -28.84943 123.88529 36054 ft 366 kts 282°
2026-04-18 08:58 -28.83798 123.82889 36054 ft 367 kts 282°
2026-04-18 08:59 -28.82647 123.77238 36058 ft 367 kts 282°
2026-04-18 08:59 -28.81492 123.71567 36059 ft 367 kts 282°
2026-04-18 09:00 -28.80340 123.65936 36058 ft 368 kts 282°
2026-04-18 09:00 -28.79178 123.60258 36058 ft 368 kts 282°
2026-04-18 09:01 -28.78010 123.54575 36059 ft 368 kts 282°
2026-04-18 09:01 -28.76850 123.48940 36066 ft 368 kts 282°
2026-04-18 09:02 -28.75685 123.43291 36074 ft 368 kts 282°
2026-04-18 09:02 -28.74509 123.37606 36076 ft 367 kts 282°
2026-04-18 09:03 -28.73345 123.31990 36081 ft 367 kts 282°
2026-04-18 09:03 -28.72173 123.26340 36088 ft 367 kts 283°
2026-04-18 09:04 -28.70999 123.20701 36094 ft 367 kts 282°
2026-04-18 09:04 -28.69819 123.15038 36097 ft 368 kts 282°
2026-04-18 09:05 -28.68642 123.09407 36097 ft 367 kts 282°
2026-04-18 09:05 -28.67460 123.03764 36099 ft 367 kts 282°
2026-04-18 09:06 -28.66277 122.98132 36097 ft 367 kts 283°
2026-04-18 09:06 -28.65095 122.92509 36088 ft 367 kts 283°
2026-04-18 09:07 -28.63896 122.86829 36083 ft 368 kts 283°
2026-04-18 09:07 -28.62702 122.81186 36087 ft 368 kts 282°
2026-04-18 09:08 -28.61510 122.75550 36084 ft 368 kts 282°
2026-04-18 09:08 -28.60311 122.69907 36088 ft 368 kts 282°
2026-04-18 09:09 -28.59110 122.64262 36089 ft 368 kts 282°
2026-04-18 09:09 -28.57911 122.58637 36089 ft 367 kts 282°
2026-04-18 09:10 -28.56708 122.52996 36086 ft 367 kts 282°
2026-04-18 09:10 -28.55508 122.47396 36089 ft 367 kts 282°
2026-04-18 09:11 -28.54297 122.41755 36086 ft 368 kts 282°
2026-04-18 09:11 -28.53082 122.36107 36086 ft 367 kts 282°
2026-04-18 09:12 -28.51869 122.30482 36087 ft 367 kts 283°
2026-04-18 09:12 -28.50658 122.24872 36085 ft 368 kts 283°
2026-04-18 09:13 -28.49442 122.19245 36087 ft 367 kts 283°
2026-04-18 09:13 -28.48222 122.13628 36088 ft 368 kts 283°
2026-04-18 09:14 -28.47000 122.07999 36087 ft 367 kts 282°
2026-04-18 09:14 -28.45776 122.02384 36087 ft 368 kts 282°
2026-04-18 09:15 -28.44541 121.96725 36088 ft 368 kts 282°
2026-04-18 09:15 -28.43314 121.91112 36089 ft 368 kts 283°
2026-04-18 09:16 -28.42080 121.85485 36090 ft 369 kts 282°
2026-04-18 09:16 -28.40847 121.79867 36091 ft 368 kts 282°
2026-04-18 09:17 -28.39611 121.74254 36090 ft 368 kts 282°
2026-04-18 09:17 -28.38368 121.68616 36090 ft 368 kts 282°
2026-04-18 09:18 -28.37125 121.62994 36090 ft 368 kts 282°
2026-04-18 09:18 -28.35880 121.57373 36091 ft 368 kts 282°
2026-04-18 09:19 -28.34630 121.51750 36089 ft 368 kts 282°
2026-04-18 09:19 -28.33381 121.46133 36089 ft 368 kts 282°
2026-04-18 09:20 -28.32134 121.40534 36089 ft 368 kts 282°
2026-04-18 09:20 -28.30886 121.34937 36090 ft 368 kts 283°
2026-04-18 09:21 -28.29623 121.29309 36091 ft 368 kts 283°
2026-04-18 09:21 -28.28367 121.23707 36087 ft 368 kts 283°
2026-04-18 09:22 -28.27103 121.18075 36087 ft 368 kts 283°
2026-04-18 09:22 -28.25843 121.12483 36086 ft 368 kts 283°
2026-04-18 09:23 -28.24575 121.06866 36084 ft 368 kts 282°
2026-04-18 09:23 -28.23309 121.01262 36085 ft 368 kts 282°
2026-04-18 09:24 -28.22038 120.95655 36084 ft 367 kts 283°
2026-04-18 09:24 -28.20773 120.90082 36084 ft 367 kts 283°
2026-04-18 09:25 -28.19502 120.84487 36085 ft 367 kts 282°
2026-04-18 09:25 -28.18224 120.78885 36084 ft 368 kts 283°
2026-04-18 09:26 -28.16954 120.73325 36084 ft 368 kts 282°
2026-04-18 09:26 -28.15665 120.67690 36083 ft 368 kts 283°
2026-04-18 09:27 -28.14386 120.62113 36085 ft 367 kts 282°
2026-04-18 09:27 -28.13106 120.56541 36089 ft 367 kts 283°
2026-04-18 09:28 -28.11818 120.50944 36093 ft 367 kts 283°
2026-04-18 09:28 -28.10531 120.45371 36093 ft 367 kts 282°
2026-04-18 09:29 -28.09239 120.39777 36092 ft 367 kts 282°
2026-04-18 09:29 -28.07945 120.34187 36092 ft 368 kts 283°
2026-04-18 09:30 -28.06651 120.28608 36089 ft 368 kts 283°
2026-04-18 09:30 -28.05361 120.23055 36091 ft 367 kts 283°
2026-04-18 09:31 -28.04060 120.17461 36086 ft 368 kts 283°
2026-04-18 09:31 -28.02755 120.11874 36085 ft 368 kts 283°
2026-04-18 09:32 -28.01642 120.06240 36085 ft 367 kts 278°
2026-04-18 09:32 -28.01111 120.00523 36084 ft 367 kts 272°
2026-04-18 09:33 -28.01170 119.94791 36081 ft 367 kts 267°
2026-04-18 09:33 -28.01825 119.89051 36082 ft 368 kts 262°
2026-04-18 09:34 -28.02736 119.83388 36082 ft 368 kts 262°
2026-04-18 09:34 -28.03657 119.77708 36083 ft 368 kts 262°
2026-04-18 09:35 -28.04585 119.72008 36083 ft 369 kts 262°
2026-04-18 09:35 -28.05509 119.66335 36086 ft 369 kts 262°
2026-04-18 09:36 -28.06441 119.60617 36088 ft 369 kts 262°
2026-04-18 09:36 -28.07362 119.54939 36089 ft 369 kts 262°
2026-04-18 09:37 -28.08286 119.49246 36088 ft 369 kts 262°
2026-04-18 09:37 -28.09208 119.43539 36088 ft 369 kts 262°
2026-04-18 09:38 -28.10127 119.37836 36091 ft 369 kts 261°
2026-04-18 09:38 -28.11043 119.32145 36095 ft 368 kts 262°
2026-04-18 09:39 -28.11959 119.26437 36095 ft 368 kts 262°
2026-04-18 09:39 -28.12862 119.20789 36095 ft 367 kts 262°
2026-04-18 09:40 -28.13770 119.15099 36095 ft 367 kts 262°
2026-04-18 09:40 -28.14677 119.09398 36096 ft 368 kts 262°
2026-04-18 09:41 -28.15576 119.03729 36095 ft 368 kts 262°
2026-04-18 09:41 -28.16475 118.98042 36097 ft 368 kts 262°
2026-04-18 09:42 -28.17372 118.92367 36098 ft 368 kts 261°
2026-04-18 09:42 -28.18267 118.86671 36097 ft 368 kts 262°
2026-04-18 09:43 -28.19161 118.80977 36098 ft 368 kts 262°
2026-04-18 09:43 -28.20052 118.75277 36098 ft 369 kts 261°
2026-04-18 09:44 -28.20941 118.69579 36098 ft 368 kts 261°
2026-04-18 09:44 -28.21831 118.63858 36097 ft 369 kts 262°
2026-04-18 09:45 -28.22716 118.58152 36096 ft 368 kts 261°
2026-04-18 09:45 -28.23600 118.52441 36097 ft 368 kts 261°
2026-04-18 09:46 -28.24477 118.46751 36094 ft 368 kts 261°
2026-04-18 09:46 -28.25357 118.41030 36093 ft 369 kts 261°
2026-04-18 09:47 -28.26233 118.35309 36091 ft 369 kts 261°
2026-04-18 09:47 -28.27103 118.29623 36091 ft 369 kts 262°
2026-04-18 09:48 -28.27977 118.23887 36088 ft 369 kts 262°
2026-04-18 09:48 -28.28845 118.18182 36089 ft 369 kts 262°
2026-04-18 09:49 -28.29731 118.12341 36088 ft 369 kts 262°
2026-04-18 09:49 -28.30593 118.06635 36086 ft 369 kts 262°
2026-04-18 09:50 -28.31453 118.00929 36084 ft 369 kts 262°
2026-04-18 09:50 -28.32315 117.95189 36086 ft 369 kts 262°
2026-04-18 09:51 -28.33175 117.89448 36084 ft 369 kts 261°
2026-04-18 09:51 -28.34026 117.83747 36083 ft 369 kts 261°
2026-04-18 09:52 -28.34881 117.78013 36081 ft 370 kts 261°
2026-04-18 09:52 -28.35747 117.72192 36465 ft 375 kts 262°
2026-04-18 09:53 -28.36174 117.69303 36820 ft 374 kts 261°
2026-04-18 09:53 -28.36605 117.66384 37166 ft 372 kts 261°
2026-04-18 09:53 -28.37030 117.63510 37470 ft 372 kts 262°
2026-04-18 09:53 -28.37453 117.60644 37748 ft 371 kts 261°
2026-04-18 09:54 -28.37881 117.57740 38009 ft 370 kts 262°
2026-04-18 09:54 -28.38303 117.54869 38072 ft 371 kts 261°
2026-04-18 09:54 -28.39142 117.49139 38078 ft 370 kts 261°
2026-04-18 09:55 -28.39986 117.43377 38080 ft 370 kts 261°
2026-04-18 09:55 -28.40828 117.37604 38080 ft 370 kts 261°
2026-04-18 09:56 -28.41664 117.31854 38082 ft 370 kts 262°
2026-04-18 09:56 -28.42497 117.26110 38079 ft 370 kts 262°
2026-04-18 09:57 -28.43326 117.20375 38076 ft 370 kts 262°
2026-04-18 09:57 -28.44157 117.14611 38079 ft 370 kts 262°
2026-04-18 09:58 -28.44983 117.08842 38083 ft 370 kts 262°
2026-04-18 09:58 -28.45552 117.03093 38086 ft 370 kts 265°
2026-04-18 09:59 -28.46046 116.97279 38092 ft 370 kts 264°
2026-04-18 10:00 -28.46783 116.88570 38091 ft 369 kts 264°
2026-04-18 10:00 -28.47267 116.82802 38094 ft 369 kts 265°
2026-04-18 10:01 -28.47751 116.76987 38094 ft 369 kts 264°
2026-04-18 10:01 -28.48227 116.71221 38091 ft 370 kts 264°
2026-04-18 10:02 -28.48705 116.65404 38092 ft 369 kts 265°
2026-04-18 10:02 -28.49179 116.59618 38085 ft 369 kts 264°
2026-04-18 10:03 -28.49649 116.53835 38089 ft 369 kts 264°
2026-04-18 10:03 -28.50121 116.48019 38088 ft 369 kts 264°
2026-04-18 10:04 -28.50588 116.42238 38088 ft 370 kts 265°
2026-04-18 10:04 -28.51053 116.36428 38075 ft 369 kts 264°
2026-04-18 10:04 -28.51282 116.33549 37693 ft 368 kts 265°
2026-04-18 10:05 -28.51515 116.30621 36695 ft 378 kts 265°
2026-04-18 10:05 -28.51751 116.27660 35623 ft 386 kts 265°
2026-04-18 10:05 -28.51991 116.24639 34408 ft 386 kts 265°
2026-04-18 10:05 -28.52229 116.21608 32769 ft 394 kts 265°
2026-04-18 10:06 -28.52467 116.18569 31548 ft 390 kts 264°
2026-04-18 10:06 -28.52708 116.15487 31011 ft 393 kts 264°
2026-04-18 10:06 -28.52950 116.12400 30522 ft 396 kts 264°
2026-04-18 10:06 -28.53195 116.09279 30033 ft 399 kts 264°
2026-04-18 10:07 -28.53435 116.06172 29547 ft 402 kts 264°
2026-04-18 10:07 -28.53683 116.02996 29029 ft 403 kts 264°
2026-04-18 10:07 -28.53926 115.99849 28516 ft 401 kts 264°
2026-04-18 10:07 -28.54169 115.96712 28003 ft 398 kts 264°
2026-04-18 10:08 -28.54411 115.93579 27485 ft 395 kts 264°
2026-04-18 10:08 -28.54644 115.90523 26961 ft 393 kts 264°
2026-04-18 10:08 -28.54879 115.87450 26322 ft 391 kts 264°
2026-04-18 10:08 -28.55115 115.84360 25658 ft 389 kts 264°
2026-04-18 10:09 -28.55343 115.81344 25003 ft 388 kts 264°
2026-04-18 10:09 -28.55573 115.78308 24342 ft 386 kts 264°
2026-04-18 10:09 -28.55803 115.75278 23677 ft 384 kts 264°
2026-04-18 10:09 -28.56029 115.72276 23023 ft 383 kts 264°
2026-04-18 10:10 -28.56254 115.69285 22376 ft 382 kts 264°
2026-04-18 10:10 -28.56479 115.66276 21722 ft 380 kts 264°
2026-04-18 10:10 -28.56702 115.63291 21081 ft 379 kts 264°
2026-04-18 10:10 -28.56921 115.60357 20448 ft 378 kts 264°
2026-04-18 10:11 -28.57141 115.57393 19812 ft 377 kts 264°
2026-04-18 10:11 -28.57361 115.54427 19162 ft 376 kts 264°
2026-04-18 10:11 -28.57579 115.51458 18522 ft 375 kts 264°
2026-04-18 10:11 -28.57794 115.48546 17895 ft 375 kts 264°
2026-04-18 10:12 -28.58010 115.45602 17266 ft 374 kts 264°
2026-04-18 10:12 -28.58225 115.42657 16635 ft 373 kts 264°
2026-04-18 10:12 -28.58439 115.39735 16016 ft 372 kts 264°
2026-04-18 10:12 -28.58651 115.36823 15394 ft 371 kts 265°
2026-04-18 10:13 -28.58862 115.33920 14767 ft 371 kts 265°
2026-04-18 10:13 -28.59070 115.31029 14124 ft 369 kts 265°
2026-04-18 10:13 -28.59276 115.28167 13407 ft 353 kts 265°
2026-04-18 10:13 -28.59471 115.25468 12758 ft 337 kts 265°
2026-04-18 10:14 -28.59654 115.22908 12167 ft 321 kts 265°
2026-04-18 10:14 -28.59831 115.20430 11566 ft 308 kts 266°
2026-04-18 10:14 -28.60001 115.18066 10973 ft 298 kts 266°
2026-04-18 10:14 -28.60165 115.15752 10373 ft 288 kts 266°
2026-04-18 10:15 -28.60323 115.13528 9778 ft 281 kts 266°
2026-04-18 10:15 -28.60479 115.11339 9287 ft 273 kts 266°
2026-04-18 10:15 -28.60630 115.09194 8640 ft 277 kts 266°
2026-04-18 10:15 -28.60782 115.07029 8207 ft 278 kts 266°
2026-04-18 10:16 -28.60935 115.04856 7886 ft 277 kts 267°
2026-04-18 10:16 -28.61088 115.02675 7563 ft 275 kts 267°
2026-04-18 10:16 -28.61241 115.00497 7238 ft 274 kts 267°
2026-04-18 10:16 -28.61391 114.98347 6913 ft 274 kts 267°
2026-04-18 10:17 -28.61541 114.96194 6587 ft 273 kts 268°
2026-04-18 10:17 -28.61689 114.94053 6266 ft 272 kts 268°
2026-04-18 10:17 -28.61835 114.91914 5939 ft 272 kts 267°
2026-04-18 10:17 -28.61980 114.89790 5700 ft 268 kts 267°
2026-04-18 10:18 -28.62125 114.87709 5512 ft 262 kts 267°
2026-04-18 10:18 -28.62234 114.85664 5318 ft 257 kts 269°
2026-04-18 10:18 -28.62289 114.83674 5004 ft 249 kts 269°
2026-04-18 10:18 -28.62335 114.81714 4557 ft 244 kts 269°
2026-04-18 10:19 -28.62379 114.79828 4151 ft 238 kts 268°
2026-04-18 10:19 -28.62447 114.77990 3798 ft 230 kts 261°
2026-04-18 10:19 -28.63091 114.76399 3424 ft 220 kts 220°
2026-04-18 10:19 -28.64423 114.75693 3100 ft 208 kts 188°
2026-04-18 10:20 -28.65810 114.75446 2876 ft 192 kts 188°
2026-04-18 10:20 -28.67071 114.75159 2533 ft 183 kts 191°
2026-04-18 10:20 -28.68304 114.74803 2268 ft 180 kts 193°
2026-04-18 10:20 -28.69501 114.74408 2023 ft 178 kts 194°
2026-04-18 10:21 -28.70671 114.73994 1788 ft 176 kts 195°
2026-04-18 10:21 -28.71814 114.73576 1618 ft 167 kts 195°
2026-04-18 10:21 -28.72906 114.73171 1385 ft 160 kts 195°
2026-04-18 10:21 -28.73936 114.72787 1152 ft 152 kts 195°
2026-04-18 10:22 -28.74905 114.72427 925 ft 141 kts 195°
2026-04-18 10:22 -28.75805 114.72085 731 ft 128 kts 196°
2026-04-18 10:22 -28.76611 114.71772 573 ft 118 kts 196°
2026-04-18 10:22 -28.77386 114.71484 440 ft 117 kts 194°
2026-04-18 10:23 -28.78169 114.71201 286 ft 116 kts 196°
2026-04-18 10:23 -28.78937 114.70906 145 ft 116 kts 195°
2026-04-18 10:23 -28.79620 114.70654 119 ft 83 kts 199°
2026-04-18 10:23 -28.80009 114.70504 114 ft 33 kts 198°
2026-04-18 10:24 -28.80190 114.70437 112 ft 21 kts 199°
2026-04-18 10:24 -28.80260 114.70400 111 ft 7 kts 172°
2026-04-18 10:24 -28.80236 114.70430 111 ft 7 kts
2026-04-18 10:24 -28.80177 114.70441 112 ft 9 kts 16°
2026-04-18 10:25 -28.80109 114.70467 113 ft 10 kts 19°
2026-04-18 10:25 -28.80032 114.70496 113 ft 12 kts 18°
2026-04-18 10:25 -28.79947 114.70528 115 ft 16 kts 18°
2026-04-18 10:25 -28.79802 114.70582 116 ft 22 kts 18°
2026-04-18 10:26 -28.79671 114.70631 118 ft 12 kts 16°
2026-04-18 10:26 -28.79621 114.70576 119 ft 12 kts 287°
2026-04-18 10:26 -28.79593 114.70479 119 ft 13 kts 288°
2026-04-18 10:26 -28.79564 114.70378 119 ft 10 kts 288°
2026-04-18 10:27 -28.79538 114.70331 119 ft 4 kts 326°
2026-04-18 10:27 -28.79532 114.70327 119 ft 0 kts 327°